Dushanbe, Tajikistan

3:54 AM +05 on October 22, 2017 (GMT +0500)
Dushanbe

Weather History for UTDD - October, 2017

Change the Weather History Date:

Thursday, October 12, 2017

  Actual Average Record
Temperature  
Mean Temperature 66 °F -  
Max Temperature 87 °F - - ()
Min Temperature 44 °F - - ()
Growing Degree Days 16 (Base 50)    
Moisture  
Dew Point 36 °F    
Average Humidity 38    
Maximum Humidity 79    
Minimum Humidity 11    
Precipitation  
Precipitation 0.00 in 0.05 in - ()
Sea Level Pressure  
Sea Level Pressure 30.01 in    
Wind  
Wind Speed 2 mph ()    
Max Wind Speed 9 mph    
Max Gust Speed -    
Visibility 6.0 miles    
Events      
T = Trace of Precipitation, MM = Missing Value Source: Averaged Metar Reports

Daily Weather History Graph

Daily Weather History Graph

Search for Another Location

Airport or City:

Trip Planner

Search our weather history database for the weather conditions in past years. The results will help you decide how hot, cold, wet, or windy it might be!

Date:

Astronomy

Oct. 12, 2017 Rise Set
Actual Time 6:30 AM +05 5:51 PM +05
Civil Twilight 6:04 AM +05 6:17 PM +05
Nautical Twilight 5:33 AM +05 6:48 PM +05
Astronomical Twilight 5:02 AM +05 7:19 PM +05
Moon 11:32 PM +05 (10/12) 1:15 PM +05 (10/12)
Length of Visible Light 12h 13m
Length of Day
11h 20m
Waning Gibbous, 53% of the Moon is Illuminated
Oct 12
Waning Gibbous
Oct 12
Last Quarter
Oct 20
New
Oct 28
First Quarter
Nov 4
Full

Hourly Weather History & Observations

Time (+05) Temp. Dew Point Humidity Pressure Visibility Wind Dir Wind Speed Gust Speed Precip Events Conditions
12:00 AM 57.2 °F 39.2 °F 51% 30.06 in 6.2 mi East 4.5 mph - N/A   Unknown
12:30 AM 59.0 °F 35.6 °F 42% 30.06 in 6.2 mi Calm Calm - N/A   Unknown
1:00 AM 57.2 °F 37.4 °F 48% 30.06 in 6.2 mi Calm Calm - N/A   Unknown
1:30 AM 55.4 °F 37.4 °F 51% 30.06 in 6.2 mi NNE 2.2 mph - N/A   Unknown
2:00 AM 47 °F 41 °F 73% 29.94 in - Calm Calm - -   Clear
2:00 AM 55.4 °F 37.4 °F 51% 30.06 in 6.2 mi Calm Calm - N/A   Unknown
2:30 AM 55.4 °F 35.6 °F 47% 30.06 in 6.2 mi Calm Calm - N/A   Unknown
3:00 AM 55.4 °F 35.6 °F 47% 30.04 in 6.2 mi Calm Calm - N/A   Unknown
3:30 AM 55.4 °F 35.6 °F 47% 30.04 in 6.2 mi NE 2.2 mph - N/A   Unknown
4:00 AM 53.6 °F 35.6 °F 51% 30.06 in 6.2 mi North 4.5 mph - N/A   Unknown
4:30 AM 51.8 °F 33.8 °F 50% 30.06 in 6.2 mi Calm Calm - N/A   Unknown
5:00 AM 46 °F 42 °F 79% 30.03 in - Calm Calm - -   Clear
5:00 AM 51.8 °F 33.8 °F 50% 30.06 in 6.2 mi Calm Calm - N/A   Unknown
5:30 AM 51.8 °F 35.6 °F 54% 30.06 in 6.2 mi Calm Calm - N/A   Unknown
6:00 AM 51.8 °F 35.6 °F 54% 30.06 in 6.2 mi Variable 2.2 mph - N/A   Unknown
6:30 AM 51.8 °F 35.6 °F 54% 30.06 in 6.2 mi Variable 2.2 mph - N/A   Unknown
7:00 AM 50.0 °F 35.6 °F 58% 30.06 in 6.2 mi Calm Calm - N/A   Unknown
7:30 AM 51.8 °F 37.4 °F 58% 30.06 in 6.2 mi Variable 2.2 mph - N/A   Unknown
8:00 AM 50 °F 42 °F 65% 29.98 in 31 mi Calm Calm - -  
8:00 AM 59.0 °F 41.0 °F 51% 30.06 in 6.2 mi Calm Calm - N/A   Unknown
8:30 AM 59.0 °F 41.0 °F 51% 30.09 in 4.3 mi SSW 4.5 mph - N/A   Unknown
9:00 AM 64.4 °F 39.2 °F 40% 30.09 in 5.0 mi Calm Calm - N/A   Unknown
9:30 AM 69.8 °F 33.8 °F 27% 30.06 in 6.2 mi Variable 2.2 mph - N/A   Unknown
10:00 AM 69.8 °F 41.0 °F 35% 30.06 in 5.6 mi Variable 2.2 mph - N/A   Unknown
10:30 AM 73.4 °F 39.2 °F 29% 30.06 in 6.2 mi Variable 2.2 mph - N/A   Unknown
11:00 AM 74 °F 42 °F 21% 29.78 in 31 mi Calm Calm - -   Clear
11:00 AM 75.2 °F 35.6 °F 24% 30.06 in 6.2 mi Variable 2.2 mph - N/A   Unknown
11:30 AM 78.8 °F 35.6 °F 21% 30.06 in 6.2 mi Variable 2.2 mph - N/A   Unknown
12:00 PM 78.8 °F 39.2 °F 24% 30.04 in 6.2 mi Variable 2.2 mph - N/A   Unknown
1:00 PM 82.4 °F 35.6 °F 19% 30.01 in 6.2 mi Variable 4.5 mph - N/A   Partly Cloudy
1:30 PM 84.2 °F 32.0 °F 15% 30.01 in 6.2 mi Variable 4.5 mph - N/A   Partly Cloudy
2:00 PM 85 °F 43 °F 13% 29.68 in 31 mi Calm Calm - -   Clear
2:00 PM 84.2 °F 28.4 °F 13% 30.01 in 6.2 mi Variable 4.5 mph - N/A   Unknown
2:30 PM 84.2 °F 30.2 °F 14% 29.98 in 6.2 mi Variable 4.5 mph - N/A   Unknown
3:00 PM 86.0 °F 26.6 °F 12% 29.98 in 6.2 mi Variable 4.5 mph - N/A   Unknown
3:30 PM 84.2 °F 24.8 °F 11% 29.98 in 6.2 mi Variable 4.5 mph - N/A   Unknown
4:00 PM 84.2 °F 24.8 °F 11% 29.98 in 6.2 mi Variable 4.5 mph - N/A   Unknown
4:30 PM 84.2 °F 26.6 °F 12% 29.98 in 6.2 mi Variable 2.2 mph - N/A   Unknown
5:00 PM 83 °F 38 °F 11% 29.68 in 31 mi Calm Calm - -  
5:00 PM 82.4 °F 30.2 °F 15% 29.98 in 6.2 mi SW 4.5 mph - N/A   Unknown
5:30 PM 77.0 °F 35.6 °F 22% 30.01 in 6.2 mi West 8.9 mph - N/A   Unknown
6:00 PM 75.2 °F 35.6 °F 24% 30.01 in 6.2 mi WNW 8.9 mph - N/A   Unknown
6:30 PM 73.4 °F 35.6 °F 25% 30.01 in 6.2 mi Variable 4.5 mph - N/A   Unknown
7:00 PM 69.8 °F 39.2 °F 33% 30.01 in 5.6 mi Variable 2.2 mph - N/A   Unknown
7:30 PM 69.8 °F 39.2 °F 33% 30.04 in 4.3 mi ENE 4.5 mph - N/A   Unknown
8:00 PM 57 °F 42 °F 45% 29.85 in - Calm Calm - -  
8:00 PM 66.2 °F 39.2 °F 37% 30.04 in 5.0 mi NE 4.5 mph - N/A   Unknown
8:30 PM 62.6 °F 39.2 °F 42% 30.04 in 5.6 mi NNE 4.5 mph - N/A   Unknown
9:00 PM 62.6 °F 39.2 °F 42% 30.04 in 5.0 mi NE 4.5 mph - N/A   Unknown
9:30 PM 62.6 °F 39.2 °F 42% 30.04 in 5.6 mi Variable 4.5 mph - N/A   Unknown
10:00 PM 60.8 °F 37.4 °F 42% 30.04 in 6.2 mi Variable 4.5 mph - N/A   Unknown
10:30 PM 59.0 °F 37.4 °F 45% 30.04 in 6.2 mi Variable 2.2 mph - N/A   Unknown
11:00 PM 50 °F 42 °F 64% 29.91 in - Calm Calm - -  
11:00 PM 59.0 °F 35.6 °F 42% 30.04 in 6.2 mi Variable 2.2 mph - N/A   Unknown
11:30 PM 59.0 °F 35.6 °F 42% 30.04 in 6.2 mi Variable 2.2 mph - N/A   Unknown